Weather in Monterey

United States     36°36′22″N   121°48′23″W
temp.,
°C
wind,
m/s
gust,
m/s
humid.,
%
clouds,
%
prec.,
mm/h
press.,
hPa
HPBL,
m
25 may, wed
wed2523:00+20se22265 0.0 101011
02:00+19se112113 0.0 100911
05:00+18se112322 0.0 101012
08:00+22nne11296 0.0 101094
11:00+27nnw312666 0.0 1010545
14:00+28nnw432892 0.0 1010754
17:00+24nnw3340100 0.0 1010382
20:00+14nw118029 0.0 101126
26 may, thu
thu2623:00+13sse116968 0.0 101219
02:00+13w11675 0.0 101111
05:00+11se11745 0.0 101113
08:00+16n11607 0.0 1013206
11:00+21nnw4250100 0.0 1013594
14:00+22nnw3251100 0.0 1013636
17:00+19nw3259100 0.0 1013402
20:00+12nw118989 0.0 101435
27 may, fri
fri2723:00+11sw019146 0.0 1016133
02:00+10s008831 0.0 101510
05:00+10s118791 0.0 101510
08:00+15nw1165100 0.0 1016220
11:00+19nw3253100 0.0 1016453
14:00+22wnw4442100 0.0 1016608
17:00+19wnw4646100 0.0 1016518
20:00+14w2267100 0.0 101674
28 may, sat
sat2823:00+12ssw2281100 0.0 101622
02:00+11sw11899 0.0 101511
05:00+11sw11935 0.0 101511
08:00+16nw227373 0.0 1014361
11:00+19nw454849 0.0 1014861
14:00+19nw454825 0.0 1014841
17:00+18wnw465730 0.0 1013795
20:00+12w2596100 0.0 1014336
29 may, sun
sun2923:00+7wsw249892 0.0 1016178
02:00+8w369294 0.0 1015391
05:00+8w358866 0.0 1015390
08:00+9wnw35761 0.0 1015466
11:00+14wnw46510 0.0 1014806
14:00+13wnw56604 0.0 1014773
17:00+11wnw596820 0.0 1014723
20:00+7w4119187 0.0 1015667